Theta_e
310 310 310 310 310 310 311 311 311 312 312 312 312 312 312 312 312 313 313 313 312 314 314 315 315 314 315 316 317 316 312 312 313 311 313 314 314 315 315 316 315 317 317 318 317
310 310 310 310 310 311 311 311 311 312 312 312 312 312 312 313 313 313 314 314 312 312 314 315 314 314 315 316 317 314 311 311 310 309 312 314 314 316 315 315 315 316 317 317 317
311 311 311 311 311 312 312 312 312 312 312 312 312 313 313 313 313 312 314 313 313 312 313 314 314 315 315 315 316 313 313 310 312 312 313 313 313 315 314 313 317 317 318 317 317
312 312 312 312 312 312 312 312 312 312 313 313 313 313 313 313 311 313 314 314 314 313 313 314 314 315 314 313 315 314 314 313 314 315 315 313 315 313 315 316 316 317 317 317 317
312 311 311 311 310 310 310 311 311 311 311 312 312 312 312 312 314 314 314 313 312 312 313 314 314 314 313 312 313 313 313 315 316 315 315 315 314 313 314 315 315 316 316 316 315
309 309 309 310 310 311 312 313 313 313 313 312 311 309 308 309 313 314 314 313 313 313 313 314 313 313 313 313 312 312 313 313 314 314 314 313 313 312 314 314 314 314 314 314 315
313 313 314 314 314 315 314 315 316 317 317 317 316 314 310 311 312 312 313 313 313 313 313 314 313 313 313 312 313 313 312 308 309 311 310 311 312 309 314 314 314 314 314 314 315
314 313 313 313 312 311 311 312 312 312 312 311 312 313 313 319 316 314 310 310 312 312 313 313 312 312 312 312 310 309 308 309 309 308 310 312 311 311 312 313 313 314 314 314 314
316 316 317 316 316 316 316 316 317 316 314 310 310 310 311 315 314 313 310 309 311 311 311 311 311 311 311 308 307 306 308 306 307 307 309 310 310 310 312 311 312 312 312 313 313
320 321 321 321 322 322 322 322 321 318 313 310 309 308 311 313 313 312 311 310 311 310 310 311 311 307 305 306 310 308 306 305 307 309 306 308 309 309 310 310 309 310 310 311 312
321 322 322 322 323 323 322 322 318 316 313 311 311 311 312 313 311 312 312 311 311 310 308 309 307 308 309 307 307 307 305 305 305 307 306 309 308 308 309 308 309 310 310 309 310
322 324 324 324 324 324 324 321 317 314 311 320 320 316 318 313 312 312 311 311 310 308 306 307 307 307 307 306 306 307 308 308 308 307 305 306 308 309 309 309 310 310 310 310 312
323 323 323 323 323 322 322 321 320 312 310 316 317 313 314 313 311 312 311 310 308 306 306 309 309 307 306 307 308 305 307 308 307 305 305 305 308 307 308 308 310 311 310 312 312
321 322 323 324 322 323 323 322 322 317 313 313 310 309 308 308 308 309 310 310 308 308 306 306 307 308 306 307 306 309 306 307 307 307 309 307 310 311 312 310 309 309 312 312 312
321 321 321 321 321 320 320 322 322 316 324 313 307 309 309 307 308 308 309 309 308 307 307 309 307 307 308 308 306 308 308 307 306 306 307 307 308 308 308 311 309 308 312 311 311
321 321 321 321 321 320 321 322 319 319 327 317 307 308 309 308 308 308 308 309 308 306 305 305 306 306 307 306 306 307 308 306 303 305 309 308 309 310 308 310 309 309 311 310 311
320 320 320 320 320 320 320 320 321 323 319 316 308 307 307 308 308 307 308 308 307 309 307 306 306 306 307 308 306 307 307 310 311 309 315 306 307 312 309 311 308 306 309 310 311
316 315 316 317 319 320 320 319 321 319 320 316 316 312 310 308 308 306 306 307 305 306 307 307 316 306 305 308 309 307 308 313 313 312 316 306 311 312 308 309 309 308 309 311 313
312 311 311 314 314 316 317 321 318 317 317 318 317 318 318 313 314 313 308 309 308 306 317 316 311 305 304 305 307 306 309 308 310 297 306 313 313 311 306 307 307 307 310 307 304
307 307 307 308 309 312 315 317 318 317 316 317 321 319 319 316 312 313 313 308 308 305 306 310 314 309 306 305 305 307 306 309 308 313 315 313 312 312 310 310 306 305 301 301 302
304 303 305 306 307 312 311 310 314 316 316 316 318 318 318 317 316 316 316 313 307 306 306 312 311 313 311 309 312 312 308 307 307 310 316 316 314 310 309 305 302 302 301 298 298
297 300 303 309 311 310 311 309 310 311 313 314 315 315 315 315 316 316 316 315 315 313 315 312 312 315 313 309 306 307 310 310 312 313 311 313 314 311 308 303 299 298 296 294 293
302 302 308 309 308 308 309 309 310 310 309 311 312 312 312 311 312 311 311 309 310 311 313 312 313 315 310 308 308 310 310 309 307 309 312 314 314 306 304 303 296 295 293 292 292
299 298 304 307 308 307 307 307 308 308 309 310 310 310 310 311 310 311 312 309 305 306 309 309 310 312 312 310 306 308 304 303 303 305 306 306 305 304 301 297 296 294 293 292 291
298 297 299 298 302 304 305 305 306 306 307 307 307 308 307 309 307 307 305 302 301 299 301 303 307 305 308 303 300 301 301 300 300 300 301 300 300 300 296 293 292 291 291 292 290
296 295 297 297 299 300 301 301 302 302 302 303 305 300 303 307 305 304 299 300 299 297 297 298 300 298 295 299 299 299 296 295 295 295 295 296 297 294 293 291 291 290 290 292 289
293 295 294 293 295 296 296 298 296 297 295 297 296 296 297 299 296 295 295 295 296 296 295 295 296 291 298 297 292 291 293 295 294 293 294 297 294 291 291 291 291 289 289 290 288
Wind_Speed
6 7 7 6 6 7 7 7 7 7 8 8 10 11 11 12 13 15 17 11 9 10 9 8 7 5 4 3 3 4 3 2 5 5 5 3 1 3 3 7 7 9 16 19 19
8 9 9 9 9 9 9 9 9 9 10 10 11 12 13 15 17 20 6 6 7 7 10 10 9 8 4 4 4 4 4 8 7 6 5 4 6 9 4 8 17 16 22 23 24
9 10 11 11 12 12 13 12 12 12 12 12 13 14 15 16 17 2 3 4 3 5 10 11 9 9 6 5 7 6 6 5 7 17 11 6 6 9 5 7 26 22 21 21 19
12 12 13 13 14 15 15 16 16 15 15 15 15 15 16 15 6 2 4 14 15 8 13 12 10 6 5 5 7 3 14 11 5 7 6 5 7 5 14 30 37 36 29 30 32
14 14 15 16 16 16 17 17 17 18 18 18 17 17 17 10 18 20 20 15 10 9 14 15 14 9 5 6 4 4 6 14 22 20 23 20 24 11 22 43 40 37 35 33 31
13 14 15 16 17 17 18 18 19 19 19 19 18 17 17 12 13 11 10 10 10 11 14 17 10 13 4 6 7 3 8 13 14 21 17 8 25 4 26 30 33 30 31 29 28
14 14 15 16 17 18 18 19 20 20 20 20 19 18 19 30 22 23 22 20 15 15 16 17 18 10 4 3 8 4 7 7 10 13 8 9 10 11 33 24 27 33 30 28 25
12 12 13 14 15 16 17 19 20 20 19 18 18 17 15 23 23 25 23 26 22 15 14 14 15 14 7 4 3 3 0 4 2 6 3 10 11 20 20 16 20 25 31 33 40
9 10 11 12 13 15 15 17 18 18 17 14 13 12 10 16 15 16 19 18 14 14 12 8 10 5 3 3 4 2 5 7 9 11 3 7 8 14 18 12 25 37 44 47 48
8 9 10 12 13 15 16 17 17 16 13 8 9 5 15 11 9 9 10 12 8 11 9 8 6 3 3 3 7 8 5 6 5 6 5 6 17 14 35 32 35 40 43 42 43
9 9 10 12 14 16 17 17 7 5 4 7 8 10 12 9 10 9 8 12 11 9 6 5 4 9 17 14 2 2 5 7 7 9 5 18 18 19 25 27 37 37 38 34 34
12 11 10 11 14 17 17 8 7 9 13 19 24 29 31 30 9 12 11 11 8 6 7 3 8 14 3 4 8 8 10 12 9 11 4 10 21 19 25 27 33 35 38 25 31
14 16 15 11 16 15 9 7 11 14 7 12 20 16 22 19 10 10 13 8 4 6 8 10 6 7 8 5 7 5 6 10 11 7 5 8 8 5 6 8 21 35 29 30 29
12 9 9 11 9 4 8 10 12 15 4 7 2 1 2 3 2 6 14 7 1 8 6 7 5 5 3 6 10 7 9 11 7 3 4 4 8 4 19 15 14 17 20 18 14
14 13 8 5 9 10 11 9 8 4 7 2 1 1 2 2 2 2 10 3 3 4 5 6 4 4 4 9 7 9 1 4 4 4 2 1 4 4 1 7 8 6 8 11 12
16 14 12 9 6 4 8 7 8 2 8 4 2 3 2 1 1 2 2 3 2 4 3 7 1 5 7 4 5 2 1 3 3 2 3 11 9 4 4 3 5 3 12 19 19
10 10 9 7 4 2 1 2 2 6 6 5 4 5 3 2 2 1 2 2 4 1 2 3 5 3 4 2 1 3 5 4 4 1 8 2 3 6 5 5 1 8 20 17 22
13 12 12 10 8 5 3 2 8 3 4 4 4 2 4 2 3 4 3 3 3 3 4 3 12 5 4 7 6 6 8 5 5 6 16 3 7 4 8 3 6 12 10 16 28
15 16 16 12 9 7 4 7 7 6 5 4 3 4 3 2 4 5 6 7 8 11 7 3 7 2 6 4 6 4 5 2 1 3 3 10 19 8 3 7 12 11 23 31 31
18 17 21 17 13 11 4 11 5 3 3 2 5 7 7 4 5 4 3 2 3 3 4 3 7 8 3 2 2 5 2 1 2 2 10 19 19 14 12 13 14 20 27 35 35
15 5 6 11 15 10 8 6 5 14 12 4 5 5 5 3 6 5 6 4 4 2 2 3 5 5 0 6 4 7 2 3 3 4 8 12 12 5 8 16 13 12 18 23 28
8 2 4 15 9 5 8 4 3 4 6 4 3 7 14 12 13 7 7 8 4 6 3 5 4 8 17 7 8 9 13 13 13 10 10 14 17 10 11 11 15 15 15 20 26
8 3 11 19 5 7 5 3 4 2 5 3 5 5 1 6 6 8 8 6 5 3 3 3 4 4 7 2 4 2 3 3 3 3 8 13 7 15 21 20 14 11 12 15 20
5 2 4 15 13 4 4 7 8 5 9 13 7 5 4 9 7 6 4 2 3 2 2 6 5 10 12 17 4 3 7 10 6 3 9 10 21 21 24 15 13 14 12 15 19
5 3 4 3 6 6 8 5 2 3 4 2 2 3 2 4 4 7 2 3 4 9 4 2 9 4 12 8 3 8 14 17 15 17 12 21 24 19 3 9 18 17 15 11 14
5 3 4 2 5 5 5 3 7 6 3 6 7 5 2 4 3 6 2 0 1 4 3 3 3 4 5 12 8 13 15 19 20 21 21 24 20 5 1 11 14 23 22 16 16
5 5 3 2 2 4 4 3 3 2 4 5 5 2 1 4 4 5 8 10 7 3 3 2 2 1 10 13 5 9 17 19 8 3 3 4 2 2 4 8 10 22 23 23 30
Wind_Direction
326 326 327 329 330 329 331 331 331 332 332 333 332 330 328 324 318 307 297 277 261 239 236 226 222 215 199 197 174 151 70 217 244 175 242 223 250 231 247 262 248 234 252 277 280
312 313 312 312 312 311 311 311 312 314 315 317 318 319 321 323 319 309 294 281 248 236 232 231 222 208 189 189 189 149 147 220 213 198 225 230 238 264 230 250 265 249 267 277 276
297 299 301 303 304 304 303 302 302 302 303 305 309 312 315 322 324 242 143 18 40 227 222 221 218 202 198 193 196 186 206 217 241 239 258 266 260 243 213 258 264 260 284 292 276
292 293 292 294 295 296 296 297 297 296 295 296 298 301 305 311 298 212 265 301 300 256 220 212 203 189 189 205 206 228 242 232 252 247 257 241 267 240 225 264 287 290 286 282 282
286 288 290 292 293 293 293 294 294 293 293 293 292 292 296 281 263 281 280 279 264 243 225 218 203 194 187 202 200 220 251 255 258 260 267 274 265 246 248 280 287 287 285 282 281
284 286 287 289 291 294 296 296 293 294 292 291 289 288 286 267 275 277 273 267 253 241 229 220 219 223 232 212 190 250 266 273 278 265 257 223 273 207 270 284 288 289 290 290 284
284 287 289 292 294 296 297 296 294 293 290 288 284 279 275 266 273 274 270 271 256 253 242 230 223 200 203 256 245 284 305 313 246 261 225 207 284 229 273 285 288 291 292 294 296
285 289 294 297 299 300 302 300 299 296 291 284 276 269 258 277 271 264 262 260 256 242 234 235 230 231 241 269 312 295 100 305 303 140 249 168 254 271 286 286 280 287 292 290 289
302 307 311 313 316 315 317 311 309 304 297 283 263 241 258 262 268 268 259 251 251 227 215 213 194 195 195 123 358 311 244 220 312 208 139 190 256 268 303 286 278 283 283 285 286
306 314 319 322 326 326 329 326 315 301 293 281 243 238 241 254 260 262 258 226 203 186 167 171 170 129 54 122 238 226 232 246 239 284 203 220 256 279 286 288 278 280 279 276 279
300 306 316 322 330 333 334 345 336 308 305 263 273 243 276 278 269 262 230 187 165 165 165 182 142 193 216 205 156 170 237 254 257 264 296 278 273 278 276 271 275 275 276 276 284
278 283 293 311 323 330 338 1 345 307 296 279 270 257 258 260 257 244 218 181 175 179 117 73 229 222 189 169 221 246 270 271 275 264 196 275 286 279 269 262 265 270 277 284 294
276 279 283 292 310 324 354 355 342 333 271 277 254 256 256 254 239 238 212 206 169 147 195 203 224 188 190 208 244 197 225 258 260 316 247 318 280 279 289 263 266 266 275 286 288
283 309 312 287 295 335 335 331 337 338 299 278 288 306 241 165 211 224 191 211 164 212 183 240 266 180 149 225 209 264 224 251 271 6 242 25 292 156 280 280 260 294 304 310 336
268 269 290 287 292 298 311 305 340 334 292 261 173 123 156 165 128 36 189 187 196 184 145 244 183 163 183 226 148 232 133 210 195 202 351 264 259 269 47 264 290 285 347 20 43
260 267 270 269 267 324 337 289 345 177 243 344 51 10 40 213 97 105 142 169 135 170 219 240 296 185 217 192 187 108 36 51 59 125 267 210 192 318 175 231 315 285 5 31 25
262 265 261 249 248 235 286 58 324 241 342 351 5 6 330 315 3 353 114 195 201 299 305 310 224 258 178 191 52 114 62 309 308 342 253 330 229 232 235 305 181 356 345 360 13
267 264 266 262 253 235 191 149 219 200 273 192 201 165 235 210 62 10 346 302 218 89 39 316 303 193 174 201 191 178 174 186 258 279 290 193 241 208 209 244 76 48 18 360 352
265 266 262 259 252 243 210 233 232 182 202 184 134 212 244 241 167 192 202 213 221 185 194 211 258 215 223 173 169 171 185 219 258 91 284 269 277 271 286 78 41 34 1 7 18
269 269 267 261 242 219 237 248 252 230 39 9 233 179 222 190 172 204 211 215 242 202 298 191 285 233 317 7 329 173 154 33 17 199 257 275 282 270 318 11 20 26 31 15 14
267 257 234 213 202 187 229 232 227 236 252 220 257 283 237 236 224 226 221 258 217 100 171 127 170 243 62 179 247 304 261 218 254 216 251 264 268 90 73 67 58 14 27 20 5
190 167 191 173 178 197 233 215 222 275 297 299 259 250 263 271 281 256 263 216 145 138 236 228 233 266 262 214 206 211 236 239 244 235 221 236 246 324 84 82 48 38 30 30 23
160 195 165 183 211 222 248 271 237 160 197 232 250 217 146 291 284 261 274 308 27 209 194 124 251 261 309 155 49 82 47 69 337 225 248 261 260 335 325 345 37 54 35 22 11
149 153 187 206 233 195 229 258 245 262 222 219 241 240 255 258 237 280 286 352 45 6 221 176 224 252 265 272 82 288 321 309 288 269 285 272 289 296 304 331 18 10 355 358 357
168 214 169 207 249 257 232 271 221 271 266 102 278 192 106 280 302 251 269 349 52 7 30 347 267 269 259 290 336 271 265 268 265 260 262 276 273 279 35 347 329 330 337 339 344
166 146 175 260 235 204 195 253 243 255 294 267 240 62 27 250 285 300 15 7 271 11 41 356 298 342 290 295 283 285 279 266 267 261 259 258 270 54 4 324 322 324 327 323 326
191 171 170 235 177 144 214 206 128 173 56 96 109 118 139 181 159 224 232 231 235 224 195 219 221 80 273 301 332 285 260 267 258 192 224 259 106 235 262 290 305 316 317 317 327